| time (UTC) | temp F | wind direction | speed MPH | gust MPH | rain 1hr in | rain 24hr in | rain mn in | humidity % | barometer mb |
| 20260902154916 | 90 | 209 | 3.0 | 6.0 | 0.00 | 0.00 | 0.00 | 23 | 1013.8 |
| 20260902154417 | 89 | 336 | 0.0 | 5.0 | 0.00 | 0.00 | 0.00 | 23 | 1013.8 |
| 20260902153912 | 89 | 356 | 0.0 | 7.0 | 0.00 | 0.00 | 0.00 | 25 | 1013.8 |
| 20260902153413 | 89 | 122 | 0.0 | 6.0 | 0.00 | 0.00 | 0.00 | 26 | 1013.8 |
| 20260902152915 | 88 | 125 | 0.0 | 7.0 | 0.00 | 0.00 | 0.00 | 25 | 1013.8 |
| 20260902152414 | 87 | 126 | 4.0 | 7.0 | 0.00 | 0.00 | 0.00 | 27 | 1013.8 |
| 20260902151916 | 88 | 62 | 0.0 | 4.0 | 0.00 | 0.00 | 0.00 | 27 | 1013.8 |
| 20260902151418 | 88 | 61 | 0.0 | 4.0 | 0.00 | 0.00 | 0.00 | 28 | 1013.8 |
| 20260902150916 | 88 | 61 | 0.0 | 4.0 | 0.00 | 0.00 | 0.00 | 28 | 1013.8 |
| 20260902150418 | 87 | 60 | 0.0 | 7.0 | 0.00 | 0.00 | 0.00 | 28 | 1013.8 |
| 20260902145920 | 87 | 108 | 0.0 | 4.0 | 0.00 | 0.00 | 0.00 | 29 | 1013.8 |
| 20260902145418 | 87 | 117 | 0.0 | 6.0 | 0.00 | 0.00 | 0.00 | 29 | 1013.8 |
| 20260902144920 | 86 | 117 | 3.0 | 7.0 | 0.00 | 0.00 | 0.00 | 30 | 1013.8 |
| 20260902144422 | 86 | 317 | 0.0 | 6.0 | 0.00 | 0.00 | 0.00 | 31 | 1013.8 |
| 20260902143921 | 86 | 98 | 4.0 | 5.0 | 0.00 | 0.00 | 0.00 | 31 | 1013.8 |
| 20260902143418 | 85 | 107 | 4.0 | 7.0 | 0.00 | 0.00 | 0.00 | 32 | 1013.8 |
| 20260902142920 | 85 | 121 | 5.0 | 7.0 | 0.00 | 0.00 | 0.00 | 33 | 1013.8 |
| 20260902142419 | 85 | 111 | 0.0 | 7.0 | 0.00 | 0.00 | 0.00 | 34 | 1013.8 |
| 20260902141911 | 84 | 116 | 4.0 | 8.0 | 0.00 | 0.00 | 0.00 | 35 | 1013.8 |
| 20260902141413 | 84 | 134 | 5.0 | 8.0 | 0.00 | 0.00 | 0.00 | 35 | 1013.8 |
| 20260902140911 | 83 | 113 | 4.0 | 9.0 | 0.00 | 0.00 | 0.00 | 37 | 1013.8 |
| 20260902140408 | 83 | 112 | 7.0 | 8.0 | 0.00 | 0.00 | 0.00 | 38 | 1013.8 |
| 20260902135910 | 83 | 110 | 5.0 | 8.0 | 0.00 | 0.00 | 0.00 | 38 | 1013.8 |
| 20260902135404 | 83 | 130 | 7.0 | 8.0 | 0.00 | 0.00 | 0.00 | 39 | 1013.8 |
| 20260902134906 | 83 | 117 | 6.0 | 6.0 | 0.00 | 0.00 | 0.00 | 39 | 1013.8 |
| 20260902134408 | 83 | 99 | 4.0 | 7.0 | 0.00 | 0.00 | 0.00 | 39 | 1013.8 |
| 20260902133907 | 83 | 109 | 4.0 | 5.0 | 0.00 | 0.00 | 0.00 | 40 | 1013.8 |
| 20260902133408 | 83 | 126 | 0.0 | 5.0 | 0.00 | 0.00 | 0.00 | 40 | 1013.8 |
| 20260902132910 | 83 | 116 | 0.0 | 5.0 | 0.00 | 0.00 | 0.00 | 41 | 1013.8 |
| 20260902132409 | 82 | 117 | 0.0 | 6.0 | 0.00 | 0.00 | 0.00 | 42 | 1013.8 |
| 20260902131911 | 81 | 117 | 3.0 | 6.0 | 0.00 | 0.00 | 0.00 | 43 | 1012.8 |
| 20260902131412 | 81 | 118 | 3.0 | 5.0 | 0.00 | 0.00 | 0.00 | 44 | 1012.8 |
| 20260902130911 | 81 | 119 | 3.0 | 6.0 | 0.00 | 0.00 | 0.00 | 45 | 1012.8 |
| 20260902130413 | 81 | 116 | 3.0 | 4.0 | 0.00 | 0.00 | 0.00 | 45 | 1012.8 |
| 20260902125915 | 81 | 116 | 3.0 | 5.0 | 0.00 | 0.00 | 0.00 | 46 | 1012.8 |
| 20260902125414 | 80 | 115 | 0.0 | 5.0 | 0.00 | 0.00 | 0.00 | 45 | 1012.8 |
| 20260902124915 | 80 | 115 | 3.0 | 6.0 | 0.00 | 0.00 | 0.00 | 45 | 1012.8 |
| 20260902124417 | 80 | 115 | 6.0 | 7.0 | 0.00 | 0.00 | 0.00 | 46 | 1012.8 |
| 20260902123916 | 79 | 114 | 5.0 | 8.0 | 0.00 | 0.00 | 0.00 | 46 | 1012.8 |
| 20260902123418 | 79 | 117 | 6.0 | 7.0 | 0.00 | 0.00 | 0.00 | 47 | 1012.8 |
| 20260902122919 | 79 | 116 | 5.0 | 5.0 | 0.00 | 0.00 | 0.00 | 48 | 1012.8 |
| 20260902122418 | 79 | 117 | 3.0 | 0.0 | 0.00 | 0.00 | 0.00 | 48 | 1012.8 |
| 20260902121920 | 79 | 117 | 0.0 | 5.0 | 0.00 | 0.00 | 0.00 | 49 | 1012.8 |
| 20260902121422 | 79 | 117 | 4.0 | 6.0 | 0.00 | 0.00 | 0.00 | 48 | 1012.8 |
| 20260902120920 | 79 | 117 | 5.0 | 7.0 | 0.00 | 0.00 | 0.00 | 48 | 1012.8 |
| 20260902120422 | 79 | 116 | 5.0 | 6.0 | 0.00 | 0.00 | 0.00 | 48 | 1012.8 |
| 20260902115924 | 79 | 116 | 5.0 | 5.0 | 0.00 | 0.00 | 0.00 | 47 | 1012.8 |
| 20260902115423 | 79 | 116 | 4.0 | 5.0 | 0.00 | 0.00 | 0.00 | 46 | 1012.8 |
| 20260902114925 | 79 | 116 | 4.0 | 5.0 | 0.00 | 0.00 | 0.00 | 47 | 1012.8 |
| 20260902114426 | 79 | 116 | 4.0 | 6.0 | 0.00 | 0.00 | 0.00 | 46 | 1012.8 |
| 20260902113925 | 79 | 116 | 5.0 | 6.0 | 0.00 | 0.00 | 0.00 | 46 | 1012.8 |
| 20260902113427 | 79 | 116 | 5.0 | 7.0 | 0.00 | 0.00 | 0.00 | 45 | 1012.8 |
| 20260902112929 | 79 | 116 | 6.0 | 6.0 | 0.00 | 0.00 | 0.00 | 45 | 1012.8 |
| 20260902112427 | 80 | 123 | 6.0 | 5.0 | 0.00 | 0.00 | 0.00 | 45 | 1012.8 |
| 20260902111929 | 80 | 126 | 4.0 | 5.0 | 0.00 | 0.00 | 0.00 | 45 | 1012.8 |
| 20260902111431 | 80 | 125 | 4.0 | 5.0 | 0.00 | 0.00 | 0.00 | 44 | 1012.8 |
| 20260902110930 | 80 | 125 | 4.0 | 7.0 | 0.00 | 0.00 | 0.00 | 44 | 1012.8 |
| 20260902110432 | 81 | 126 | 6.0 | 4.0 | 0.00 | 0.00 | 0.00 | 44 | 1012.8 |
| 20260902105933 | 80 | 162 | 0.0 | 4.0 | 0.00 | 0.00 | 0.00 | 45 | 1012.8 |
| 20260902105432 | 80 | 175 | 4.0 | 4.0 | 0.00 | 0.00 | 0.00 | 45 | 1012.8 |
| 20260902104934 | 80 | 183 | 0.0 | 4.0 | 0.00 | 0.00 | 0.00 | 45 | 1012.8 |
| 20260902104436 | 81 | 184 | 0.0 | 4.0 | 0.00 | 0.00 | 0.00 | 43 | 1012.8 |
| 20260902103934 | 81 | 184 | 3.0 | 4.0 | 0.00 | 0.00 | 0.00 | 42 | 1012.8 |
| 20260902103436 | 81 | 184 | 0.0 | 3.0 | 0.00 | 0.00 | 0.00 | 41 | 1012.8 |
| 20260902102938 | 81 | 184 | 0.0 | 4.0 | 0.00 | 0.00 | 0.00 | 41 | 1012.8 |
| 20260902102437 | 81 | 184 | 0.0 | 0.0 | 0.00 | 0.00 | 0.00 | 41 | 1012.8 |
| 20260902101938 | 81 | 184 | 0.0 | 0.0 | 0.00 | 0.00 | 0.00 | 41 | 1012.8 |
| 20260902100939 | 81 | 184 | 0.0 | 3.0 | 0.00 | 0.00 | 0.00 | 41 | 1012.8 |
| 20260902100441 | 81 | 184 | 0.0 | 4.0 | 0.00 | 0.00 | 0.00 | 41 | 1012.8 |
| 20260902095943 | 81 | 184 | 3.0 | 4.0 | 0.00 | 0.00 | 0.00 | 41 | 1012.8 |
| 20260902095441 | 81 | 184 | 0.0 | 4.0 | 0.00 | 0.00 | 0.00 | 40 | 1012.8 |
| 20260902094943 | 81 | 185 | 0.0 | 3.0 | 0.00 | 0.00 | 0.00 | 40 | 1012.8 |
| 20260902094445 | 81 | 184 | 0.0 | 0.0 | 0.00 | 0.00 | 0.00 | 40 | 1012.8 |
| 20260902093943 | 82 | 185 | 0.0 | 0.0 | 0.00 | 0.00 | 0.00 | 40 | 1012.8 |
| 20260902093445 | 82 | 185 | 0.0 | 0.0 | 0.00 | 0.00 | 0.00 | 39 | 1012.8 |
| 20260902092947 | 82 | 185 | 0.0 | 3.0 | 0.00 | 0.00 | 0.00 | 39 | 1012.8 |
| 20260902092446 | 82 | 184 | 0.0 | 4.0 | 0.00 | 0.00 | 0.00 | 39 | 1012.8 |
| 20260902091948 | 82 | 184 | 0.0 | 4.0 | 0.00 | 0.00 | 0.00 | 39 | 1012.8 |
| 20260902091449 | 82 | 185 | 0.0 | 0.0 | 0.00 | 0.00 | 0.00 | 38 | 1012.8 |
| 20260902090948 | 82 | 191 | 0.0 | 3.0 | 0.00 | 0.00 | 0.00 | 37 | 1012.8 |
| 20260902090450 | 82 | 192 | 0.0 | 4.0 | 0.00 | 0.00 | 0.00 | 37 | 1012.8 |
| 20260902085952 | 82 | 191 | 3.0 | 4.0 | 0.00 | 0.00 | 0.00 | 37 | 1012.8 |
| 20260902085450 | 82 | 191 | 0.0 | 5.0 | 0.00 | 0.00 | 0.00 | 36 | 1012.8 |
| 20260902084952 | 82 | 194 | 0.0 | 6.0 | 0.00 | 0.00 | 0.00 | 36 | 1012.8 |
| 20260902084454 | 83 | 192 | 3.0 | 4.0 | 0.00 | 0.00 | 0.00 | 35 | 1012.8 |
| 20260902083953 | 83 | 189 | 0.0 | 5.0 | 0.00 | 0.00 | 0.00 | 35 | 1012.8 |
| 20260902083455 | 83 | 187 | 0.0 | 4.0 | 0.00 | 0.00 | 0.00 | 34 | 1012.8 |
| 20260902082956 | 83 | 194 | 3.0 | 5.0 | 0.00 | 0.00 | 0.00 | 34 | 1012.8 |
| 20260902082455 | 83 | 198 | 0.0 | 4.0 | 0.00 | 0.00 | 0.00 | 34 | 1012.8 |
| 20260902081957 | 83 | 194 | 3.0 | 6.0 | 0.00 | 0.00 | 0.00 | 33 | 1012.8 |
| 20260902081459 | 83 | 192 | 3.0 | 6.0 | 0.00 | 0.00 | 0.00 | 32 | 1012.8 |
| 20260902080957 | 83 | 179 | 4.0 | 5.0 | 0.00 | 0.00 | 0.00 | 32 | 1012.8 |
| 20260902080454 | 83 | 156 | 3.0 | 6.0 | 0.00 | 0.00 | 0.00 | 32 | 1012.8 |
| 20260902075956 | 83 | 174 | 3.0 | 4.0 | 0.00 | 0.00 | 0.00 | 32 | 1012.8 |
| 20260902075450 | 83 | 182 | 3.0 | 6.0 | 0.00 | 0.00 | 0.00 | 32 | 1012.8 |
| 20260902074951 | 84 | 160 | 4.0 | 6.0 | 0.00 | 0.00 | 0.00 | 32 | 1012.8 |
| 20260902074453 | 84 | 171 | 0.0 | 8.0 | 0.00 | 0.00 | 0.00 | 31 | 1012.8 |
| 20260902073952 | 84 | 124 | 4.0 | 6.0 | 0.00 | 0.00 | 0.00 | 31 | 1012.8 |
| 20260902073454 | 84 | 146 | 4.0 | 4.0 | 0.00 | 0.00 | 0.00 | 31 | 1012.8 |
| 20260902072956 | 84 | 202 | 0.0 | 7.0 | 0.00 | 0.00 | 0.00 | 31 | 1012.8 |
| 20260902072454 | 84 | 169 | 4.0 | 7.0 | 0.00 | 0.00 | 0.00 | 31 | 1012.8 |
| 20260902071956 | 84 | 185 | 3.0 | 10.0 | 0.00 | 0.00 | 0.00 | 31 | 1012.8 |
| 20260902071458 | 84 | 134 | 6.0 | 9.0 | 0.00 | 0.00 | 0.00 | 31 | 1012.8 |
| 20260902070956 | 84 | 216 | 7.0 | 10.0 | 0.00 | 0.00 | 0.00 | 30 | 1012.8 |
| 20260902070454 | 84 | 223 | 6.0 | 9.0 | 0.00 | 0.00 | 0.00 | 30 | 1012.8 |
| 20260902065956 | 85 | 160 | 5.0 | 9.0 | 0.00 | 0.00 | 0.00 | 30 | 1012.8 |
| 20260902065454 | 85 | 159 | 6.0 | 8.0 | 0.00 | 0.00 | 0.00 | 30 | 1012.8 |
| 20260902064951 | 85 | 135 | 4.0 | 9.0 | 0.00 | 0.00 | 0.00 | 30 | 1012.8 |
| 20260902063952 | 85 | 216 | 4.0 | 11.0 | 0.00 | 0.00 | 0.00 | 30 | 1012.8 |
| 20260902063453 | 85 | 129 | 5.0 | 13.0 | 0.00 | 0.00 | 0.00 | 29 | 1012.8 |
| 20260902062955 | 85 | 124 | 7.0 | 9.0 | 0.00 | 0.00 | 0.00 | 29 | 1012.8 |
| 20260902062454 | 85 | 134 | 4.0 | 13.0 | 0.00 | 0.00 | 0.00 | 29 | 1012.8 |
| 20260902061956 | 85 | 166 | 6.0 | 13.0 | 0.00 | 0.00 | 0.00 | 29 | 1012.8 |
| 20260902061458 | 85 | 157 | 9.0 | 10.0 | 0.00 | 0.00 | 0.00 | 29 | 1012.8 |
| 20260902060952 | 85 | 144 | 8.0 | 11.0 | 0.00 | 0.00 | 0.00 | 29 | 1012.8 |
| 20260902060453 | 85 | 126 | 8.0 | 14.0 | 0.00 | 0.00 | 0.00 | 29 | 1012.8 |
| 20260902055955 | 85 | 157 | 7.0 | 11.0 | 0.00 | 0.00 | 0.00 | 29 | 1012.8 |
| 20260902055454 | 85 | 125 | 6.0 | 14.0 | 0.00 | 0.00 | 0.00 | 29 | 1012.8 |
| 20260902054956 | 85 | 139 | 9.0 | 14.0 | 0.00 | 0.00 | 0.00 | 29 | 1012.8 |
| 20260902053956 | 86 | 131 | 7.0 | 14.0 | 0.00 | 0.00 | 0.00 | 29 | 1011.8 |
| 20260902053458 | 86 | 138 | 9.0 | 11.0 | 0.00 | 0.00 | 0.00 | 29 | 1011.8 |
| 20260902053000 | 86 | 128 | 6.0 | 12.0 | 0.00 | 0.00 | 0.00 | 29 | 1011.8 |
| 20260902052459 | 86 | 115 | 9.0 | 12.0 | 0.00 | 0.00 | 0.00 | 28 | 1011.8 |
| 20260902052000 | 86 | 164 | 7.0 | 15.0 | 0.00 | 0.00 | 0.00 | 28 | 1011.8 |
| 20260902051502 | 86 | 145 | 8.0 | 12.0 | 0.00 | 0.00 | 0.00 | 28 | 1012.8 |
| 20260902051001 | 87 | 134 | 6.0 | 16.0 | 0.00 | 0.00 | 0.00 | 28 | 1012.8 |
| 20260902050503 | 87 | 118 | 7.0 | 15.0 | 0.00 | 0.00 | 0.00 | 27 | 1012.8 |
| 20260902045955 | 87 | 130 | 12.0 | 13.0 | 0.00 | 0.00 | 0.00 | 27 | 1012.8 |
| 20260902045453 | 87 | 125 | 7.0 | 15.0 | 0.00 | 0.00 | 0.00 | 25 | 1012.8 |
| 20260902044955 | 87 | 118 | 10.0 | 18.0 | 0.00 | 0.00 | 0.00 | 24 | 1012.8 |
| 20260902044457 | 88 | 115 | 11.0 | 15.0 | 0.00 | 0.00 | 0.00 | 23 | 1011.8 |
| 20260902043956 | 88 | 107 | 10.0 | 16.0 | 0.00 | 0.00 | 0.00 | 22 | 1011.8 |
| 20260902043457 | 88 | 141 | 12.0 | 13.0 | 0.00 | 0.00 | 0.00 | 21 | 1011.8 |
| 20260902042959 | 89 | 130 | 11.0 | 8.0 | 0.00 | 0.00 | 0.00 | 20 | 1011.8 |
| 20260902042458 | 89 | 121 | 5.0 | 8.0 | 0.00 | 0.00 | 0.00 | 20 | 1011.8 |
| 20260902042000 | 89 | 125 | 7.0 | 8.0 | 0.00 | 0.00 | 0.00 | 19 | 1011.8 |
| 20260902041502 | 89 | 122 | 6.0 | 8.0 | 0.00 | 0.00 | 0.00 | 19 | 1011.8 |
| 20260902041000 | 89 | 123 | 7.0 | 7.0 | 0.00 | 0.00 | 0.00 | 19 | 1011.8 |
| 20260902040502 | 89 | 127 | 4.0 | 8.0 | 0.00 | 0.00 | 0.00 | 19 | 1011.8 |
| 20260902040004 | 90 | 125 | 4.0 | 7.0 | 0.00 | 0.00 | 0.00 | 19 | 1011.8 |
| 20260902035503 | 90 | 121 | 6.0 | 7.0 | 0.00 | 0.00 | 0.00 | 19 | 1011.8 |
| 20260902035004 | 90 | 123 | 5.0 | 8.0 | 0.00 | 0.00 | 0.00 | 19 | 1011.8 |
| 20260902033950 | 90 | 115 | 5.0 | 7.0 | 0.00 | 0.00 | 0.00 | 18 | 1011.8 |
| 20260902033452 | 90 | 118 | 4.0 | 9.0 | 0.00 | 0.00 | 0.00 | 18 | 1011.8 |
| 20260902032452 | 91 | 126 | 4.0 | 9.0 | 0.00 | 0.00 | 0.00 | 18 | 1011.8 |
| 20260902031954 | 91 | 116 | 5.0 | 9.0 | 0.00 | 0.00 | 0.00 | 18 | 1011.8 |
| 20260902031456 | 91 | 139 | 6.0 | 8.0 | 0.00 | 0.00 | 0.00 | 17 | 1011.8 |
| 20260902030955 | 91 | 117 | 7.0 | 9.0 | 0.00 | 0.00 | 0.00 | 17 | 1011.8 |
| 20260902030456 | 92 | 110 | 6.0 | 9.0 | 0.00 | 0.00 | 0.00 | 17 | 1011.8 |
| 20260902025958 | 92 | 116 | 7.0 | 9.0 | 0.00 | 0.00 | 0.00 | 17 | 1011.8 |
| 20260902025457 | 92 | 119 | 6.0 | 9.0 | 0.00 | 0.00 | 0.00 | 17 | 1011.8 |
| 20260902024959 | 92 | 112 | 7.0 | 8.0 | 0.00 | 0.00 | 0.00 | 17 | 1011.8 |
| 20260902023959 | 92 | 121 | 7.0 | 10.0 | 0.00 | 0.00 | 0.00 | 17 | 1010.8 |
| 20260902023451 | 92 | 116 | 8.0 | 10.0 | 0.00 | 0.00 | 0.00 | 17 | 1010.8 |
| 20260902022953 | 92 | 113 | 8.0 | 11.0 | 0.00 | 0.00 | 0.00 | 17 | 1010.8 |
| 20260902022452 | 92 | 137 | 7.0 | 10.0 | 0.00 | 0.00 | 0.00 | 17 | 1010.8 |
| 20260902021949 | 92 | 123 | 8.0 | 12.0 | 0.00 | 0.00 | 0.00 | 17 | 1010.8 |
| 20260902021451 | 93 | 107 | 9.0 | 11.0 | 0.00 | 0.00 | 0.00 | 17 | 1010.8 |
| 20260902020940 | 93 | 114 | 9.0 | 10.0 | 0.00 | 0.00 | 0.00 | 17 | 1010.8 |
| 20260902020442 | 93 | 113 | 5.0 | 10.0 | 0.00 | 0.00 | 0.00 | 17 | 1010.8 |
| 20260902015943 | 93 | 119 | 9.0 | 10.0 | 0.00 | 0.00 | 0.00 | 17 | 1010.8 |
| 20260902015432 | 93 | 108 | 8.0 | 9.0 | 0.00 | 0.00 | 0.00 | 17 | 1010.8 |
| 20260902014934 | 93 | 113 | 7.0 | 9.0 | 0.00 | 0.00 | 0.00 | 16 | 1010.8 |
| 20260902014436 | 93 | 116 | 6.0 | 8.0 | 0.00 | 0.00 | 0.00 | 16 | 1010.8 |
| 20260902013930 | 94 | 109 | 6.0 | 10.0 | 0.00 | 0.00 | 0.00 | 16 | 1010.8 |
| 20260902013432 | 94 | 114 | 7.0 | 11.0 | 0.00 | 0.00 | 0.00 | 16 | 1010.8 |
| 20260902012932 | 94 | 113 | 8.0 | 9.0 | 0.00 | 0.00 | 0.00 | 16 | 1010.8 |
| 20260902012430 | 94 | 115 | 7.0 | 10.0 | 0.00 | 0.00 | 0.00 | 16 | 1010.8 |
| 20260902011932 | 94 | 114 | 9.0 | 10.0 | 0.00 | 0.00 | 0.00 | 16 | 1010.8 |
| 20260902011429 | 94 | 119 | 7.0 | 12.0 | 0.00 | 0.00 | 0.00 | 16 | 1010.8 |
| 20260902010927 | 94 | 115 | 6.0 | 10.0 | 0.00 | 0.00 | 0.00 | 16 | 1010.8 |
| 20260902010429 | 94 | 119 | 7.0 | 10.0 | 0.00 | 0.00 | 0.00 | 16 | 1010.8 |
| 20260902005931 | 94 | 149 | 5.0 | 10.0 | 0.00 | 0.00 | 0.00 | 16 | 1010.8 |
| 20260902005430 | 95 | 122 | 5.0 | 12.0 | 0.00 | 0.00 | 0.00 | 16 | 1010.8 |
| 20260902004932 | 95 | 116 | 7.0 | 11.0 | 0.00 | 0.00 | 0.00 | 16 | 1010.8 |
| 20260902004433 | 95 | 130 | 7.0 | 12.0 | 0.00 | 0.00 | 0.00 | 16 | 1010.8 |
| 20260902003927 | 95 | 105 | 9.0 | 12.0 | 0.00 | 0.00 | 0.00 | 16 | 1010.8 |
| 20260902003429 | 95 | 107 | 8.0 | 12.0 | 0.00 | 0.00 | 0.00 | 16 | 1010.8 |
| 20260902002931 | 95 | 123 | 7.0 | 13.0 | 0.00 | 0.00 | 0.00 | 16 | 1010.8 |
| 20260902002429 | 95 | 104 | 10.0 | 13.0 | 0.00 | 0.00 | 0.00 | 16 | 1010.8 |
| 20260902001931 | 95 | 127 | 10.0 | 12.0 | 0.00 | 0.00 | 0.00 | 16 | 1010.8 |
| 20260902001433 | 95 | 108 | 7.0 | 13.0 | 0.00 | 0.00 | 0.00 | 16 | 1010.8 |
| 20260902000932 | 96 | 134 | 9.0 | 15.0 | 0.00 | 0.00 | 0.00 | 16 | 1010.8 |
| 20260902000434 | 96 | 115 | 13.0 | 13.0 | 0.00 | 0.00 | 0.00 | 16 | 1010.8 |
| 20260901235935 | 96 | 127 | 8.0 | 15.0 | 0.00 | 0.00 | 0.00 | 13 | 1010.8 |
| 20260901235434 | 97 | 137 | 7.0 | 13.0 | 0.00 | 0.00 | 0.00 | 13 | 1010.8 |
| 20260901234936 | 96 | 125 | 9.0 | 14.0 | 0.00 | 0.00 | 0.00 | 13 | 1010.8 |
| 20260901234433 | 97 | 117 | 10.0 | 10.0 | 0.00 | 0.00 | 0.00 | 13 | 1010.8 |
| 20260901233932 | 97 | 128 | 8.0 | 9.0 | 0.00 | 0.00 | 0.00 | 13 | 1010.8 |
| 20260901233434 | 97 | 125 | 4.0 | 10.0 | 0.00 | 0.00 | 0.00 | 13 | 1010.8 |
| 20260901232936 | 97 | 117 | 6.0 | 7.0 | 0.00 | 0.00 | 0.00 | 13 | 1010.8 |
| 20260901232434 | 97 | 117 | 3.0 | 10.0 | 0.00 | 0.00 | 0.00 | 13 | 1010.8 |
| 20260901231936 | 97 | 84 | 5.0 | 10.0 | 0.00 | 0.00 | 0.00 | 13 | 1010.8 |
| 20260901231438 | 97 | 82 | 6.0 | 12.0 | 0.00 | 0.00 | 0.00 | 13 | 1010.8 |
| 20260901230937 | 97 | 98 | 8.0 | 14.0 | 0.00 | 0.00 | 0.00 | 13 | 1010.8 |
| 20260901230438 | 97 | 119 | 7.0 | 13.0 | 0.00 | 0.00 | 0.00 | 13 | 1010.8 |
| 20260901225940 | 97 | 116 | 9.0 | 15.0 | 0.00 | 0.00 | 0.00 | 13 | 1010.8 |
| 20260901225439 | 98 | 136 | 11.0 | 11.0 | 0.00 | 0.00 | 0.00 | 13 | 1010.8 |
| 20260901224941 | 97 | 109 | 8.0 | 12.0 | 0.00 | 0.00 | 0.00 | 13 | 1010.8 |
| 20260901223941 | 98 | 119 | 6.0 | 10.0 | 0.00 | 0.00 | 0.00 | 13 | 1010.8 |
| 20260901223443 | 98 | 139 | 4.0 | 11.0 | 0.00 | 0.00 | 0.00 | 13 | 1010.8 |
| 20260901222940 | 97 | 115 | 8.0 | 10.0 | 0.00 | 0.00 | 0.00 | 13 | 1010.8 |
| 20260901222439 | 97 | 88 | 6.0 | 11.0 | 0.00 | 0.00 | 0.00 | 13 | 1010.8 |
| 20260901221941 | 97 | 168 | 6.0 | 10.0 | 0.00 | 0.00 | 0.00 | 13 | 1010.8 |
| 20260901221443 | 97 | 192 | 7.0 | 15.0 | 0.00 | 0.00 | 0.00 | 13 | 1010.8 |
| 20260901220941 | 97 | 162 | 4.0 | 12.0 | 0.00 | 0.00 | 0.00 | 13 | 1010.8 |
| 20260901220438 | 97 | 114 | 8.0 | 12.0 | 0.00 | 0.00 | 0.00 | 13 | 1010.8 |
| 20260901215940 | 97 | 137 | 8.0 | 12.0 | 0.00 | 0.00 | 0.00 | 13 | 1010.8 |
| 20260901215439 | 99 | 107 | 5.0 | 10.0 | 0.00 | 0.00 | 0.00 | 13 | 1010.8 |
| 20260901214940 | 99 | 160 | 4.0 | 7.0 | 0.00 | 0.00 | 0.00 | 13 | 1010.8 |
| 20260901214442 | 98 | 243 | 0.0 | 12.0 | 0.00 | 0.00 | 0.00 | 13 | 1010.8 |
| 20260901213941 | 98 | 136 | 8.0 | 11.0 | 0.00 | 0.00 | 0.00 | 13 | 1010.8 |
| 20260901213443 | 96 | 112 | 8.0 | 7.0 | 0.00 | 0.00 | 0.00 | 13 | 1010.8 |
| 20260901212935 | 97 | 118 | 3.0 | 8.0 | 0.00 | 0.00 | 0.00 | 13 | 1010.8 |
| 20260901212434 | 97 | 117 | 4.0 | 12.0 | 0.00 | 0.00 | 0.00 | 13 | 1010.8 |
| 20260901211936 | 97 | 124 | 7.0 | 11.0 | 0.00 | 0.00 | 0.00 | 13 | 1010.8 |
| 20260901211437 | 97 | 100 | 6.0 | 11.0 | 0.00 | 0.00 | 0.00 | 13 | 1010.8 |
| 20260901210936 | 97 | 110 | 8.0 | 10.0 | 0.00 | 0.00 | 0.00 | 13 | 1010.8 |
| 20260901210438 | 98 | 194 | 4.0 | 12.0 | 0.00 | 0.00 | 0.00 | 13 | 1010.8 |
| 20260901205940 | 96 | 113 | 8.0 | 11.0 | 0.00 | 0.00 | 0.00 | 16 | 1011.8 |
| 20260901205438 | 97 | 129 | 8.0 | 10.0 | 0.00 | 0.00 | 0.00 | 16 | 1011.8 |
| 20260901204940 | 97 | 131 | 8.0 | 11.0 | 0.00 | 0.00 | 0.00 | 16 | 1011.8 |
| 20260901204442 | 97 | 133 | 6.0 | 13.0 | 0.00 | 0.00 | 0.00 | 16 | 1011.8 |
| 20260901203941 | 96 | 118 | 7.0 | 12.0 | 0.00 | 0.00 | 0.00 | 16 | 1011.8 |
| 20260901203442 | 97 | 141 | 6.0 | 7.0 | 0.00 | 0.00 | 0.00 | 16 | 1011.8 |
| 20260901202944 | 97 | 108 | 4.0 | 8.0 | 0.00 | 0.00 | 0.00 | 16 | 1011.8 |
| 20260901202443 | 96 | 79 | 5.0 | 8.0 | 0.00 | 0.00 | 0.00 | 16 | 1011.8 |
| 20260901201945 | 96 | 106 | 4.0 | 9.0 | 0.00 | 0.00 | 0.00 | 16 | 1011.8 |
| 20260901201442 | 97 | 107 | 4.0 | 10.0 | 0.00 | 0.00 | 0.00 | 16 | 1011.8 |
| 20260901200940 | 96 | 114 | 3.0 | 14.0 | 0.00 | 0.00 | 0.00 | 16 | 1011.8 |
| 20260901200442 | 96 | 199 | 6.0 | 12.0 | 0.00 | 0.00 | 0.00 | 16 | 1011.8 |
| 20260901195943 | 96 | 128 | 3.0 | 12.0 | 0.00 | 0.00 | 0.00 | 16 | 1011.8 |
| 20260901195442 | 95 | 101 | 8.0 | 13.0 | 0.00 | 0.00 | 0.00 | 16 | 1011.8 |
| 20260901194944 | 96 | 130 | 9.0 | 12.0 | 0.00 | 0.00 | 0.00 | 16 | 1011.8 |
| 20260901194441 | 97 | 127 | 7.0 | 12.0 | 0.00 | 0.00 | 0.00 | 16 | 1011.8 |
| 20260901193940 | 97 | 132 | 9.0 | 8.0 | 0.00 | 0.00 | 0.00 | 16 | 1011.8 |
| 20260901193442 | 98 | 115 | 0.0 | 3.0 | 0.00 | 0.00 | 0.00 | 15 | 1011.8 |
| 20260901192944 | 96 | 116 | 0.0 | 12.0 | 0.00 | 0.00 | 0.00 | 16 | 1012.8 |
| 20260901192442 | 95 | 115 | 4.0 | 13.0 | 0.00 | 0.00 | 0.00 | 16 | 1012.8 |
| 20260901191944 | 94 | 116 | 11.0 | 6.0 | 0.00 | 0.00 | 0.00 | 16 | 1012.8 |
| 20260901191445 | 95 | 117 | 3.0 | 10.0 | 0.00 | 0.00 | 0.00 | 16 | 1012.8 |
| 20260901190939 | 95 | 131 | 0.0 | 9.0 | 0.00 | 0.00 | 0.00 | 16 | 1012.8 |
| 20260901190441 | 95 | 139 | 4.0 | 14.0 | 0.00 | 0.00 | 0.00 | 16 | 1012.8 |
| 20260901185937 | 95 | 191 | 7.0 | 13.0 | 0.00 | 0.00 | 0.00 | 16 | 1012.8 |
| 20260901185436 | 94 | 111 | 10.0 | 10.0 | 0.00 | 0.00 | 0.00 | 16 | 1012.8 |
| 20260901184938 | 95 | 121 | 0.0 | 12.0 | 0.00 | 0.00 | 0.00 | 16 | 1012.8 |
| 20260901184439 | 95 | 109 | 10.0 | 7.0 | 0.00 | 0.00 | 0.00 | 16 | 1012.8 |
| 20260901183938 | 97 | 98 | 3.0 | 11.0 | 0.00 | 0.00 | 0.00 | 16 | 1012.8 |
| 20260901183440 | 95 | 223 | 4.0 | 12.0 | 0.00 | 0.00 | 0.00 | 16 | 1012.8 |
| 20260901182941 | 94 | 111 | 9.0 | 14.0 | 0.00 | 0.00 | 0.00 | 16 | 1013.8 |
| 20260901182440 | 96 | 135 | 8.0 | 12.0 | 0.00 | 0.00 | 0.00 | 16 | 1013.8 |
| 20260901181942 | 96 | 130 | 9.0 | 8.0 | 0.00 | 0.00 | 0.00 | 16 | 1013.8 |
| 20260901181443 | 96 | 121 | 5.0 | 8.0 | 0.00 | 0.00 | 0.00 | 16 | 1013.8 |
| 20260901180942 | 95 | 151 | 6.0 | 12.0 | 0.00 | 0.00 | 0.00 | 16 | 1013.8 |
| 20260901180444 | 96 | 133 | 6.0 | 5.0 | 0.00 | 0.00 | 0.00 | 16 | 1013.8 |
| 20260901175946 | 97 | 140 | 0.0 | 8.0 | 0.00 | 0.00 | 0.00 | 16 | 1013.8 |
| 20260901175444 | 95 | 158 | 4.0 | 9.0 | 0.00 | 0.00 | 0.00 | 17 | 1013.8 |
| 20260901174946 | 94 | 144 | 6.0 | 9.0 | 0.00 | 0.00 | 0.00 | 17 | 1013.8 |
| 20260901174438 | 95 | 14 | 4.0 | 7.0 | 0.00 | 0.00 | 0.00 | 17 | 1013.8 |
| 20260901173936 | 94 | 246 | 4.0 | 6.0 | 0.00 | 0.00 | 0.00 | 17 | 1013.8 |
| 20260901173437 | 94 | 162 | 0.0 | 8.0 | 0.00 | 0.00 | 0.00 | 17 | 1013.8 |
| 20260901172939 | 95 | 159 | 7.0 | 8.0 | 0.00 | 0.00 | 0.00 | 17 | 1013.8 |
| 20260901172432 | 94 | 109 | 4.0 | 10.0 | 0.00 | 0.00 | 0.00 | 17 | 1013.8 |
| 20260901171934 | 94 | 124 | 7.0 | 10.0 | 0.00 | 0.00 | 0.00 | 17 | 1013.8 |
| 20260901171435 | 94 | 199 | 4.0 | 11.0 | 0.00 | 0.00 | 0.00 | 17 | 1013.8 |
| 20260901170934 | 93 | 116 | 8.0 | 12.0 | 0.00 | 0.00 | 0.00 | 17 | 1013.8 |
| 20260901170431 | 92 | 114 | 7.0 | 9.0 | 0.00 | 0.00 | 0.00 | 18 | 1014.8 |
| 20260901165933 | 94 | 115 | 4.0 | 11.0 | 0.00 | 0.00 | 0.00 | 17 | 1014.8 |
| 20260901165427 | 94 | 127 | 6.0 | 7.0 | 0.00 | 0.00 | 0.00 | 17 | 1014.8 |
| 20260901164923 | 94 | 157 | 3.0 | 10.0 | 0.00 | 0.00 | 0.00 | 17 | 1014.8 |
| 20260901164420 | 93 | 121 | 6.0 | 7.0 | 0.00 | 0.00 | 0.00 | 18 | 1014.8 |
| 20260901163421 | 93 | 161 | 4.0 | 10.0 | 0.00 | 0.00 | 0.00 | 18 | 1014.8 |
| 20260901162922 | 93 | 124 | 4.0 | 9.0 | 0.00 | 0.00 | 0.00 | 18 | 1014.8 |
| 20260901162416 | 94 | 208 | 4.0 | 8.0 | 0.00 | 0.00 | 0.00 | 18 | 1014.8 |
| 20260901161918 | 93 | 189 | 3.0 | 7.0 | 0.00 | 0.00 | 0.00 | 18 | 1014.8 |
| 20260901161420 | 92 | 202 | 0.0 | 7.0 | 0.00 | 0.00 | 0.00 | 19 | 1014.8 |
| 20260901160918 | 91 | 213 | 3.0 | 8.0 | 0.00 | 0.00 | 0.00 | 19 | 1014.8 |
| 20260901160420 | 91 | 211 | 5.0 | 7.0 | 0.00 | 0.00 | 0.00 | 19 | 1014.8 |
| 20260901155922 | 92 | 148 | 4.0 | 5.0 | 0.00 | 0.00 | 0.00 | 19 | 1014.8 |
| 20260901155420 | 91 | 191 | 3.0 | 9.0 | 0.00 | 0.00 | 0.00 | 19 | 1014.8 |